This is the latest recevied weather packets stored in our database for station/object CT2HRB-13. If no packets are shown the sender has not sent any weather packets the latest 10 day(s).
| Time | Temp. | Humidity | Pressure | Rain* | Wind** | Luminosity | Snow |
|---|---|---|---|---|---|---|---|
| 1778146502 | 16.67° C | 63% | 1010.9 hPa | - | - | - | - |
| 1778146201 | 16.67° C | 63% | 1010.8 hPa | - | - | - | - |
| 1778145901 | 16.67° C | 62% | 1010.7 hPa | - | - | - | - |
| 1778145602 | 16.67° C | 59% | 1010.8 hPa | - | - | - | - |
| 1778145302 | 16.67° C | 64% | 1010.9 hPa | - | - | - | - |
| 1778145001 | 16.11° C | 63% | 1010.6 hPa | - | - | - | - |
| 1778144702 | 16.11° C | 64% | 1010.9 hPa | - | - | - | - |
| 1778144401 | 15.56° C | 65% | 1010.9 hPa | - | - | - | - |
| 1778144101 | 15.56° C | 65% | 1010.9 hPa | - | - | - | - |
| 1778143801 | 15.56° C | 66% | 1010.7 hPa | - | - | - | - |
| 1778143502 | 15.56° C | 65% | 1010.8 hPa | - | - | - | - |
| 1778143202 | 16.11° C | 67% | 1010.6 hPa | - | - | - | - |
| 1778142901 | 16.11° C | 69% | 1010.7 hPa | - | - | - | - |
| 1778142601 | 15.56° C | 69% | 1010.7 hPa | - | - | - | - |
| 1778142302 | 15.56° C | 70% | 1010.8 hPa | - | - | - | - |
| 1778142001 | 15.56° C | 71% | 1010.6 hPa | - | - | - | - |
| 1778141702 | 15.56° C | 71% | 1010.7 hPa | - | - | - | - |
| 1778141401 | 15° C | 71% | 1010.4 hPa | - | - | - | - |
| 1778141101 | 15° C | 71% | 1010.6 hPa | - | - | - | - |
| 1778140802 | 15° C | 71% | 1010.6 hPa | - | - | - | - |
| 1778140501 | 15° C | 71% | 1010.6 hPa | - | - | - | - |
| 1778140201 | 15.56° C | 71% | 1010.6 hPa | - | - | - | - |
| 1778139902 | 15.56° C | 71% | 1010.6 hPa | - | - | - | - |
| 1778139602 | 15.56° C | 71% | 1010.3 hPa | - | - | - | - |
| 1778139302 | 15.56° C | 70% | 1010.5 hPa | - | - | - | - |
* Rain since midnight (hover to see other rain measurements)
** Current wind speed in m/s (hover to see current wind gust speed)